Precipitable_Water
1.30 1.29 1.29 1.27 1.27 1.24 1.20 1.14 1.09 1.06 1.03 1.02 1.01 1.04 0.96 0.88 0.86 0.86 0.86 0.84 0.86 0.85 0.83 0.79 0.78 0.77 0.76 0.75 0.75 0.76 0.76 0.76 0.76 0.74 0.70 0.66 0.64 0.60 0.53 0.45 0.43 0.44 0.42 0.39 0.38 0.35 0.32 0.30 0.29 0.29 0.30 0.26 0.26 0.27 0.28 0.30 0.32 0.32 0.32 0.31 0.28 0.29 0.28 0.24 0.20 0.20 0.24 0.30 0.29 0.28 0.31 0.31 0.30 0.35 0.37 0.42 0.48 0.55 0.62 0.68 0.74 0.81 0.83 0.84 0.89
1.28 1.27 1.26 1.25 1.22 1.20 1.15 1.12 1.08 1.05 1.02 1.01 1.03 0.99 0.90 0.89 0.88 0.88 0.85 0.85 0.85 0.81 0.80 0.78 0.78 0.78 0.75 0.73 0.72 0.73 0.73 0.74 0.74 0.71 0.67 0.63 0.60 0.56 0.47 0.38 0.34 0.34 0.35 0.32 0.33 0.33 0.32 0.29 0.29 0.29 0.30 0.27 0.27 0.26 0.28 0.28 0.28 0.27 0.28 0.28 0.28 0.28 0.29 0.25 0.23 0.20 0.19 0.24 0.24 0.28 0.27 0.30 0.25 0.32 0.32 0.34 0.38 0.45 0.49 0.56 0.64 0.71 0.77 0.76 0.79
1.29 1.27 1.24 1.22 1.19 1.18 1.14 1.08 1.05 1.02 0.99 1.00 0.98 0.93 0.91 0.89 0.89 0.86 0.84 0.83 0.82 0.80 0.79 0.78 0.78 0.77 0.75 0.73 0.72 0.71 0.71 0.71 0.72 0.69 0.65 0.62 0.57 0.49 0.43 0.35 0.31 0.30 0.30 0.32 0.32 0.32 0.30 0.30 0.30 0.30 0.30 0.28 0.28 0.28 0.29 0.28 0.29 0.28 0.28 0.30 0.29 0.29 0.29 0.29 0.24 0.21 0.21 0.22 0.26 0.25 0.26 0.28 0.27 0.27 0.31 0.34 0.37 0.40 0.41 0.45 0.51 0.60 0.71 0.70 0.71
1.24 1.22 1.19 1.17 1.17 1.14 1.10 1.07 1.03 1.00 0.97 0.97 0.93 0.91 0.89 0.87 0.86 0.84 0.84 0.83 0.80 0.80 0.80 0.80 0.79 0.77 0.75 0.72 0.71 0.71 0.71 0.71 0.70 0.67 0.63 0.60 0.54 0.46 0.41 0.36 0.33 0.31 0.32 0.33 0.34 0.33 0.32 0.31 0.31 0.32 0.31 0.28 0.28 0.28 0.29 0.29 0.29 0.29 0.29 0.30 0.30 0.29 0.30 0.29 0.28 0.25 0.23 0.20 0.23 0.25 0.27 0.26 0.27 0.29 0.31 0.33 0.32 0.32 0.35 0.39 0.45 0.48 0.58 0.61 0.62
1.20 1.18 1.17 1.15 1.14 1.11 1.08 1.06 1.01 0.99 0.97 0.93 0.91 0.90 0.88 0.85 0.84 0.84 0.84 0.83 0.82 0.81 0.80 0.81 0.80 0.77 0.74 0.72 0.70 0.69 0.69 0.69 0.65 0.60 0.57 0.54 0.51 0.45 0.41 0.37 0.34 0.33 0.34 0.35 0.35 0.35 0.34 0.33 0.34 0.33 0.32 0.29 0.29 0.29 0.29 0.28 0.29 0.30 0.29 0.30 0.30 0.30 0.29 0.28 0.27 0.26 0.23 0.21 0.22 0.25 0.27 0.27 0.28 0.29 0.30 0.26 0.27 0.30 0.31 0.32 0.34 0.37 0.43 0.51 0.52
1.18 1.16 1.16 1.13 1.10 1.08 1.07 1.06 1.02 0.99 0.95 0.92 0.90 0.89 0.87 0.84 0.84 0.86 0.86 0.84 0.83 0.83 0.82 0.81 0.79 0.76 0.74 0.72 0.70 0.68 0.68 0.67 0.62 0.58 0.54 0.51 0.47 0.42 0.39 0.36 0.35 0.34 0.34 0.35 0.35 0.36 0.36 0.35 0.35 0.35 0.33 0.31 0.30 0.31 0.30 0.29 0.29 0.29 0.29 0.30 0.30 0.30 0.28 0.27 0.27 0.25 0.24 0.23 0.22 0.21 0.25 0.23 0.24 0.26 0.30 0.30 0.27 0.24 0.25 0.29 0.32 0.33 0.33 0.38 0.41
1.16 1.15 1.15 1.13 1.09 1.06 1.06 1.05 1.04 0.99 0.94 0.93 0.92 0.90 0.85 0.85 0.86 0.87 0.88 0.86 0.84 0.82 0.81 0.79 0.78 0.76 0.73 0.71 0.69 0.67 0.65 0.64 0.59 0.54 0.50 0.47 0.42 0.37 0.34 0.33 0.33 0.33 0.35 0.37 0.37 0.38 0.38 0.38 0.37 0.37 0.35 0.34 0.32 0.32 0.31 0.30 0.30 0.29 0.30 0.30 0.30 0.29 0.28 0.27 0.27 0.25 0.23 0.22 0.22 0.23 0.23 0.26 0.27 0.24 0.29 0.32 0.32 0.30 0.25 0.24 0.23 0.30 0.32 0.34 0.32
1.16 1.15 1.15 1.12 1.09 1.06 1.06 1.07 1.04 0.98 0.96 0.95 0.93 0.90 0.87 0.88 0.90 0.91 0.90 0.86 0.84 0.82 0.81 0.79 0.76 0.74 0.72 0.70 0.68 0.66 0.63 0.59 0.54 0.50 0.48 0.45 0.41 0.36 0.33 0.30 0.30 0.31 0.32 0.35 0.36 0.37 0.38 0.39 0.38 0.38 0.38 0.37 0.36 0.35 0.34 0.32 0.31 0.30 0.31 0.32 0.31 0.29 0.28 0.28 0.26 0.25 0.23 0.22 0.21 0.20 0.22 0.23 0.25 0.28 0.30 0.30 0.27 0.27 0.30 0.29 0.25 0.26 0.29 0.34 0.37
1.18 1.16 1.14 1.11 1.09 1.08 1.07 1.06 1.04 1.00 0.99 0.97 0.93 0.90 0.90 0.93 0.93 0.91 0.90 0.88 0.87 0.85 0.82 0.78 0.73 0.71 0.71 0.69 0.65 0.63 0.59 0.53 0.49 0.48 0.46 0.42 0.39 0.34 0.32 0.29 0.28 0.28 0.30 0.33 0.35 0.37 0.38 0.39 0.40 0.39 0.39 0.40 0.40 0.39 0.37 0.36 0.33 0.30 0.31 0.32 0.31 0.29 0.28 0.28 0.27 0.24 0.23 0.22 0.20 0.21 0.20 0.20 0.22 0.24 0.23 0.24 0.24 0.26 0.31 0.32 0.30 0.32 0.32 0.32 0.35
1.16 1.13 1.11 1.09 1.08 1.07 1.05 1.05 1.02 1.02 0.99 0.95 0.93 0.94 0.95 0.94 0.92 0.91 0.90 0.90 0.87 0.83 0.79 0.74 0.72 0.71 0.68 0.64 0.60 0.57 0.52 0.47 0.45 0.44 0.42 0.38 0.35 0.33 0.31 0.28 0.27 0.26 0.28 0.30 0.33 0.36 0.38 0.38 0.38 0.37 0.37 0.38 0.38 0.39 0.38 0.38 0.37 0.36 0.34 0.32 0.31 0.30 0.28 0.26 0.25 0.24 0.23 0.21 0.21 0.20 0.18 0.19 0.21 0.24 0.25 0.28 0.30 0.31 0.30 0.31 0.28 0.31 0.32 0.32 0.34
1.14 1.12 1.09 1.09 1.08 1.07 1.05 1.04 1.04 1.01 1.00 1.00 1.00 0.99 0.96 0.94 0.93 0.92 0.91 0.87 0.81 0.78 0.75 0.73 0.72 0.69 0.64 0.58 0.53 0.49 0.45 0.42 0.42 0.41 0.39 0.37 0.34 0.32 0.29 0.27 0.26 0.27 0.28 0.29 0.31 0.34 0.36 0.37 0.36 0.35 0.35 0.35 0.36 0.37 0.37 0.36 0.36 0.35 0.36 0.36 0.35 0.33 0.29 0.26 0.26 0.25 0.23 0.22 0.23 0.22 0.20 0.19 0.22 0.25 0.26 0.29 0.30 0.30 0.31 0.31 0.30 0.30 0.29 0.27 0.25
1.13 1.11 1.09 1.09 1.08 1.07 1.06 1.04 1.03 1.03 1.03 1.02 1.01 1.00 0.98 0.95 0.93 0.90 0.85 0.80 0.77 0.76 0.72 0.69 0.66 0.63 0.58 0.52 0.47 0.42 0.38 0.37 0.37 0.37 0.37 0.35 0.33 0.30 0.28 0.26 0.26 0.26 0.27 0.28 0.30 0.33 0.33 0.34 0.34 0.34 0.34 0.34 0.34 0.34 0.35 0.36 0.36 0.35 0.35 0.36 0.36 0.36 0.35 0.31 0.27 0.25 0.24 0.23 0.22 0.23 0.22 0.21 0.22 0.24 0.26 0.27 0.28 0.30 0.31 0.31 0.31 0.30 0.29 0.29 0.30
1.13 1.10 1.10 1.09 1.09 1.08 1.07 1.03 1.03 1.03 1.04 1.03 1.01 0.99 0.95 0.92 0.87 0.82 0.80 0.80 0.77 0.73 0.69 0.65 0.61 0.58 0.51 0.43 0.37 0.33 0.32 0.33 0.33 0.33 0.32 0.31 0.30 0.28 0.27 0.26 0.25 0.25 0.25 0.26 0.28 0.30 0.31 0.31 0.31 0.31 0.32 0.33 0.33 0.33 0.33 0.33 0.34 0.34 0.34 0.35 0.36 0.36 0.35 0.35 0.34 0.31 0.29 0.25 0.24 0.23 0.24 0.24 0.22 0.24 0.27 0.28 0.30 0.27 0.29 0.29 0.31 0.32 0.33 0.31 0.32
1.13 1.11 1.10 1.09 1.09 1.08 1.06 1.04 1.03 1.03 1.02 1.03 1.01 0.98 0.93 0.88 0.86 0.85 0.83 0.80 0.74 0.70 0.65 0.61 0.57 0.52 0.45 0.40 0.36 0.33 0.31 0.31 0.30 0.29 0.29 0.29 0.29 0.28 0.27 0.26 0.25 0.24 0.24 0.24 0.25 0.25 0.26 0.27 0.27 0.28 0.30 0.32 0.32 0.32 0.32 0.32 0.33 0.32 0.33 0.34 0.34 0.36 0.36 0.35 0.34 0.33 0.32 0.29 0.27 0.25 0.28 0.28 0.26 0.27 0.29 0.30 0.27 0.26 0.26 0.27 0.30 0.30 0.31 0.32 0.37
1.13 1.12 1.10 1.09 1.09 1.07 1.06 1.04 1.02 1.00 1.00 1.01 0.99 0.95 0.91 0.89 0.87 0.85 0.81 0.76 0.70 0.65 0.60 0.56 0.52 0.47 0.43 0.42 0.39 0.37 0.34 0.33 0.31 0.30 0.30 0.30 0.29 0.28 0.26 0.25 0.25 0.24 0.24 0.24 0.24 0.24 0.24 0.25 0.25 0.26 0.28 0.30 0.31 0.31 0.31 0.31 0.31 0.32 0.32 0.33 0.33 0.34 0.36 0.35 0.35 0.34 0.33 0.32 0.31 0.30 0.30 0.31 0.30 0.31 0.31 0.31 0.30 0.30 0.30 0.29 0.30 0.32 0.33 0.36 0.36
1.14 1.13 1.10 1.09 1.08 1.07 1.05 1.04 1.01 0.98 0.96 0.96 0.95 0.93 0.91 0.89 0.85 0.83 0.79 0.73 0.67 0.62 0.58 0.53 0.47 0.44 0.43 0.43 0.41 0.38 0.39 0.38 0.36 0.32 0.30 0.30 0.29 0.27 0.26 0.24 0.23 0.23 0.24 0.24 0.25 0.25 0.25 0.25 0.24 0.25 0.27 0.28 0.30 0.30 0.31 0.31 0.30 0.31 0.31 0.32 0.32 0.33 0.35 0.38 0.38 0.37 0.35 0.34 0.34 0.33 0.34 0.34 0.33 0.33 0.33 0.32 0.31 0.31 0.30 0.29 0.29 0.28 0.26 0.24 0.25
1.14 1.12 1.11 1.10 1.09 1.08 1.06 1.03 0.99 0.96 0.96 0.95 0.94 0.92 0.88 0.86 0.84 0.82 0.75 0.68 0.61 0.56 0.52 0.49 0.45 0.42 0.42 0.42 0.40 0.39 0.39 0.40 0.39 0.36 0.33 0.30 0.28 0.26 0.25 0.23 0.23 0.22 0.23 0.24 0.24 0.25 0.26 0.25 0.25 0.25 0.26 0.27 0.29 0.29 0.30 0.30 0.30 0.30 0.30 0.30 0.31 0.31 0.32 0.37 0.39 0.38 0.37 0.37 0.36 0.36 0.35 0.34 0.34 0.33 0.33 0.33 0.33 0.32 0.28 0.24 0.23 0.25 0.21 0.19 0.21
1.09 1.12 1.13 1.13 1.11 1.09 1.07 1.03 0.97 0.97 0.97 0.95 0.92 0.89 0.87 0.84 0.81 0.79 0.72 0.62 0.56 0.53 0.50 0.46 0.43 0.43 0.41 0.41 0.41 0.39 0.40 0.42 0.42 0.41 0.38 0.33 0.28 0.25 0.24 0.23 0.22 0.22 0.22 0.23 0.24 0.24 0.25 0.25 0.25 0.25 0.25 0.26 0.28 0.28 0.30 0.30 0.28 0.29 0.28 0.28 0.27 0.28 0.31 0.34 0.35 0.36 0.38 0.37 0.37 0.36 0.35 0.34 0.34 0.34 0.34 0.34 0.34 0.33 0.29 0.24 0.26 0.25 0.21 0.21 0.20
1.11 1.13 1.15 1.15 1.11 1.08 1.07 1.04 1.01 1.00 0.97 0.94 0.90 0.86 0.83 0.81 0.79 0.76 0.70 0.60 0.54 0.50 0.46 0.42 0.41 0.42 0.42 0.41 0.43 0.42 0.42 0.44 0.45 0.44 0.41 0.38 0.31 0.26 0.24 0.22 0.21 0.21 0.21 0.21 0.23 0.23 0.23 0.24 0.24 0.24 0.24 0.25 0.26 0.27 0.28 0.29 0.28 0.28 0.28 0.27 0.25 0.26 0.29 0.32 0.32 0.31 0.32 0.32 0.33 0.34 0.33 0.34 0.34 0.34 0.34 0.34 0.35 0.34 0.33 0.31 0.30 0.26 0.22 0.22 0.22
1.13 1.14 1.15 1.14 1.11 1.10 1.09 1.05 1.03 1.00 0.95 0.92 0.89 0.86 0.83 0.80 0.76 0.71 0.66 0.58 0.51 0.46 0.42 0.40 0.39 0.40 0.42 0.42 0.44 0.44 0.44 0.46 0.48 0.46 0.43 0.40 0.34 0.26 0.23 0.21 0.20 0.21 0.21 0.21 0.21 0.22 0.23 0.23 0.24 0.24 0.23 0.23 0.24 0.25 0.27 0.28 0.28 0.29 0.29 0.26 0.25 0.25 0.31 0.31 0.32 0.31 0.31 0.31 0.31 0.32 0.32 0.33 0.33 0.33 0.34 0.34 0.34 0.35 0.34 0.34 0.32 0.29 0.26 0.24 0.23
1.18 1.16 1.16 1.14 1.13 1.11 1.11 1.07 1.03 1.00 0.95 0.91 0.88 0.85 0.82 0.77 0.74 0.69 0.62 0.56 0.49 0.43 0.39 0.38 0.38 0.40 0.42 0.43 0.45 0.45 0.46 0.47 0.49 0.47 0.44 0.40 0.35 0.29 0.23 0.21 0.22 0.21 0.21 0.21 0.21 0.21 0.22 0.23 0.24 0.25 0.24 0.23 0.23 0.24 0.25 0.26 0.28 0.28 0.28 0.27 0.27 0.30 0.31 0.29 0.30 0.30 0.29 0.29 0.29 0.30 0.30 0.31 0.32 0.32 0.33 0.33 0.33 0.34 0.35 0.35 0.35 0.33 0.29 0.26 0.23
1.15 1.15 1.11 1.13 1.12 1.10 1.10 1.08 1.04 0.98 0.94 0.90 0.85 0.82 0.80 0.77 0.72 0.65 0.58 0.52 0.45 0.40 0.38 0.37 0.37 0.39 0.41 0.44 0.45 0.45 0.47 0.47 0.47 0.46 0.42 0.38 0.34 0.31 0.24 0.22 0.23 0.22 0.21 0.21 0.22 0.23 0.23 0.24 0.24 0.25 0.25 0.24 0.23 0.22 0.23 0.24 0.26 0.27 0.28 0.29 0.30 0.29 0.28 0.29 0.29 0.28 0.28 0.27 0.26 0.26 0.28 0.28 0.28 0.29 0.31 0.33 0.33 0.34 0.34 0.35 0.36 0.36 0.34 0.33 0.29
1.11 1.10 1.10 1.09 1.09 1.09 1.06 1.04 0.99 0.94 0.90 0.88 0.83 0.79 0.78 0.74 0.68 0.62 0.55 0.50 0.43 0.39 0.36 0.36 0.35 0.36 0.39 0.42 0.43 0.44 0.46 0.46 0.45 0.44 0.41 0.38 0.35 0.32 0.25 0.23 0.24 0.24 0.22 0.22 0.23 0.24 0.25 0.25 0.25 0.25 0.25 0.25 0.24 0.22 0.22 0.22 0.24 0.26 0.27 0.28 0.28 0.28 0.28 0.27 0.26 0.26 0.25 0.26 0.25 0.24 0.25 0.26 0.26 0.27 0.29 0.31 0.33 0.35 0.34 0.35 0.36 0.36 0.36 0.35 0.35
1.10 1.10 1.09 1.08 1.08 1.06 1.04 1.00 0.94 0.90 0.88 0.85 0.82 0.79 0.75 0.72 0.66 0.60 0.54 0.47 0.41 0.37 0.35 0.34 0.34 0.33 0.35 0.39 0.41 0.42 0.44 0.44 0.45 0.44 0.41 0.39 0.36 0.28 0.25 0.26 0.26 0.26 0.25 0.24 0.25 0.26 0.25 0.26 0.26 0.25 0.24 0.24 0.24 0.23 0.22 0.21 0.22 0.23 0.24 0.25 0.25 0.26 0.26 0.25 0.24 0.24 0.23 0.23 0.23 0.23 0.24 0.25 0.25 0.26 0.27 0.30 0.32 0.34 0.35 0.35 0.35 0.36 0.35 0.34 0.34
1.08 1.07 1.07 1.07 1.06 1.05 1.00 0.94 0.90 0.87 0.86 0.84 0.80 0.78 0.74 0.70 0.62 0.58 0.52 0.45 0.38 0.34 0.33 0.32 0.31 0.31 0.33 0.36 0.38 0.40 0.41 0.42 0.43 0.43 0.40 0.37 0.32 0.26 0.26 0.27 0.27 0.27 0.25 0.26 0.27 0.26 0.26 0.26 0.26 0.25 0.24 0.24 0.23 0.23 0.23 0.22 0.21 0.22 0.23 0.23 0.23 0.22 0.21 0.22 0.22 0.22 0.21 0.21 0.21 0.22 0.23 0.24 0.25 0.26 0.28 0.29 0.30 0.31 0.32 0.33 0.34 0.35 0.36 0.35 0.34
1.06 1.06 1.07 1.06 1.04 1.00 0.93 0.89 0.87 0.85 0.84 0.83 0.81 0.78 0.73 0.66 0.59 0.54 0.49 0.41 0.36 0.33 0.32 0.31 0.30 0.31 0.31 0.33 0.35 0.36 0.37 0.38 0.39 0.38 0.36 0.33 0.28 0.27 0.27 0.27 0.27 0.27 0.27 0.26 0.25 0.25 0.25 0.25 0.25 0.25 0.24 0.24 0.22 0.22 0.21 0.22 0.22 0.21 0.22 0.22 0.22 0.21 0.21 0.20 0.20 0.20 0.20 0.21 0.21 0.21 0.22 0.24 0.25 0.26 0.27 0.27 0.26 0.25 0.26 0.26 0.27 0.28 0.31 0.30 0.28
1.08 1.05 1.06 1.02 0.99 0.94 0.88 0.85 0.84 0.83 0.82 0.81 0.80 0.77 0.71 0.62 0.56 0.52 0.47 0.39 0.36 0.34 0.32 0.30 0.30 0.30 0.30 0.31 0.32 0.32 0.33 0.34 0.33 0.32 0.32 0.29 0.27 0.27 0.27 0.26 0.26 0.26 0.25 0.24 0.24 0.24 0.23 0.24 0.23 0.23 0.24 0.23 0.23 0.22 0.22 0.22 0.22 0.21 0.21 0.22 0.22 0.22 0.21 0.20 0.20 0.20 0.20 0.20 0.21 0.21 0.22 0.23 0.25 0.25 0.24 0.24 0.24 0.24 0.25 0.24 0.22 0.22 0.25 0.26 0.25
1.04 1.03 1.01 0.97 0.93 0.89 0.85 0.84 0.82 0.80 0.80 0.78 0.76 0.71 0.65 0.60 0.56 0.51 0.44 0.38 0.35 0.32 0.31 0.30 0.30 0.30 0.31 0.31 0.31 0.31 0.31 0.31 0.30 0.29 0.28 0.27 0.26 0.26 0.26 0.25 0.24 0.23 0.22 0.22 0.22 0.22 0.21 0.21 0.21 0.21 0.22 0.21 0.21 0.20 0.20 0.21 0.21 0.21 0.20 0.21 0.21 0.22 0.22 0.22 0.22 0.21 0.21 0.21 0.21 0.21 0.21 0.21 0.20 0.22 0.23 0.23 0.23 0.23 0.24 0.22 0.21 0.20 0.21 0.21 0.20
1.00 0.99 0.98 0.94 0.88 0.86 0.84 0.83 0.82 0.80 0.78 0.76 0.74 0.69 0.62 0.60 0.57 0.52 0.45 0.40 0.34 0.30 0.28 0.29 0.32 0.34 0.34 0.32 0.31 0.30 0.30 0.29 0.29 0.31 0.29 0.28 0.26 0.24 0.23 0.23 0.23 0.21 0.21 0.21 0.19 0.18 0.18 0.17 0.17 0.17 0.17 0.17 0.17 0.17 0.17 0.18 0.19 0.20 0.20 0.20 0.20 0.21 0.21 0.20 0.19 0.19 0.20 0.20 0.18 0.19 0.19 0.19 0.19 0.21 0.21 0.20 0.21 0.22 0.23 0.22 0.21 0.20 0.20 0.20 0.18
0.96 0.94 0.92 0.88 0.85 0.84 0.83 0.82 0.81 0.79 0.77 0.74 0.70 0.66 0.67 0.65 0.62 0.51 0.43 0.43 0.38 0.33 0.31 0.32 0.35 0.36 0.33 0.33 0.32 0.29 0.28 0.30 0.32 0.30 0.29 0.28 0.27 0.26 0.24 0.23 0.22 0.21 0.21 0.21 0.19 0.16 0.15 0.14 0.14 0.14 0.14 0.14 0.14 0.15 0.15 0.16 0.16 0.17 0.18 0.19 0.19 0.19 0.19 0.19 0.20 0.20 0.20 0.20 0.19 0.19 0.18 0.18 0.18 0.19 0.19 0.19 0.20 0.21 0.22 0.21 0.20 0.21 0.19 0.18 0.17
0.91 0.88 0.86 0.84 0.83 0.83 0.82 0.80 0.79 0.77 0.76 0.73 0.68 0.63 0.63 0.64 0.59 0.52 0.49 0.47 0.44 0.40 0.37 0.38 0.39 0.37 0.34 0.34 0.37 0.36 0.34 0.32 0.30 0.29 0.28 0.27 0.25 0.24 0.23 0.22 0.21 0.21 0.21 0.19 0.17 0.15 0.14 0.13 0.13 0.13 0.13 0.13 0.12 0.12 0.14 0.14 0.14 0.14 0.15 0.18 0.19 0.18 0.18 0.19 0.19 0.20 0.20 0.20 0.20 0.20 0.19 0.19 0.18 0.19 0.18 0.19 0.19 0.19 0.20 0.21 0.21 0.21 0.20 0.19 0.18
0.89 0.85 0.83 0.83 0.82 0.82 0.81 0.79 0.78 0.76 0.75 0.72 0.67 0.63 0.61 0.55 0.52 0.53 0.53 0.52 0.51 0.52 0.51 0.48 0.43 0.38 0.37 0.38 0.38 0.38 0.36 0.31 0.28 0.27 0.26 0.25 0.24 0.23 0.22 0.22 0.21 0.20 0.20 0.21 0.17 0.16 0.15 0.14 0.14 0.13 0.13 0.12 0.12 0.12 0.13 0.13 0.13 0.13 0.13 0.14 0.16 0.18 0.18 0.18 0.19 0.20 0.20 0.20 0.20 0.20 0.20 0.19 0.19 0.19 0.19 0.19 0.19 0.19 0.19 0.19 0.19 0.19 0.19 0.20 0.19
0.89 0.85 0.83 0.82 0.81 0.81 0.80 0.79 0.78 0.76 0.74 0.69 0.65 0.62 0.56 0.51 0.48 0.49 0.52 0.55 0.57 0.59 0.59 0.53 0.47 0.44 0.44 0.43 0.39 0.37 0.34 0.32 0.30 0.28 0.26 0.23 0.22 0.20 0.21 0.21 0.21 0.22 0.22 0.20 0.18 0.16 0.16 0.16 0.15 0.15 0.14 0.13 0.13 0.13 0.13 0.13 0.13 0.13 0.13 0.13 0.15 0.17 0.17 0.18 0.20 0.19 0.20 0.20 0.20 0.20 0.20 0.20 0.20 0.20 0.20 0.20 0.19 0.19 0.19 0.19 0.20 0.20 0.20 0.19 0.19
0.92 0.88 0.85 0.83 0.81 0.81 0.81 0.80 0.78 0.76 0.74 0.68 0.63 0.59 0.54 0.50 0.49 0.48 0.46 0.50 0.56 0.58 0.58 0.55 0.52 0.53 0.51 0.44 0.39 0.35 0.31 0.27 0.26 0.26 0.24 0.21 0.19 0.19 0.20 0.21 0.22 0.23 0.22 0.20 0.19 0.17 0.17 0.16 0.16 0.16 0.15 0.15 0.14 0.15 0.14 0.14 0.14 0.14 0.13 0.13 0.14 0.16 0.17 0.18 0.18 0.18 0.18 0.20 0.20 0.20 0.20 0.20 0.21 0.20 0.20 0.21 0.21 0.21 0.20 0.20 0.20 0.19 0.19 0.19 0.19
0.90 0.89 0.87 0.85 0.83 0.82 0.81 0.80 0.78 0.75 0.70 0.65 0.61 0.56 0.53 0.51 0.50 0.49 0.50 0.50 0.50 0.49 0.49 0.51 0.54 0.55 0.46 0.40 0.36 0.31 0.27 0.23 0.23 0.22 0.20 0.18 0.18 0.20 0.20 0.20 0.19 0.20 0.21 0.21 0.20 0.18 0.17 0.17 0.17 0.17 0.17 0.16 0.16 0.16 0.16 0.15 0.15 0.15 0.15 0.14 0.14 0.14 0.16 0.16 0.17 0.16 0.16 0.17 0.19 0.20 0.20 0.20 0.21 0.21 0.21 0.20 0.20 0.20 0.21 0.21 0.21 0.20 0.19 0.20 0.20
0.89 0.87 0.86 0.84 0.83 0.82 0.81 0.79 0.77 0.72 0.67 0.63 0.60 0.56 0.52 0.50 0.50 0.52 0.54 0.54 0.53 0.51 0.48 0.47 0.47 0.44 0.39 0.34 0.30 0.27 0.23 0.21 0.19 0.18 0.18 0.18 0.18 0.19 0.17 0.17 0.18 0.18 0.19 0.20 0.19 0.19 0.19 0.19 0.18 0.18 0.18 0.17 0.17 0.17 0.17 0.16 0.16 0.16 0.16 0.16 0.15 0.15 0.15 0.15 0.15 0.15 0.15 0.15 0.16 0.17 0.20 0.20 0.20 0.21 0.21 0.21 0.21 0.21 0.21 0.22 0.22 0.22 0.21 0.20 0.21
0.90 0.89 0.86 0.84 0.83 0.83 0.82 0.80 0.76 0.71 0.66 0.62 0.58 0.55 0.52 0.51 0.52 0.54 0.55 0.55 0.54 0.52 0.48 0.44 0.40 0.34 0.30 0.28 0.26 0.24 0.21 0.18 0.17 0.18 0.18 0.18 0.18 0.18 0.18 0.18 0.18 0.19 0.19 0.19 0.19 0.19 0.19 0.19 0.19 0.19 0.19 0.18 0.18 0.18 0.18 0.18 0.18 0.17 0.17 0.17 0.17 0.16 0.16 0.16 0.16 0.16 0.15 0.15 0.14 0.15 0.17 0.19 0.19 0.19 0.19 0.19 0.20 0.21 0.21 0.22 0.22 0.22 0.22 0.22 0.21
0.89 0.88 0.86 0.85 0.83 0.83 0.81 0.78 0.74 0.69 0.64 0.60 0.57 0.54 0.51 0.51 0.53 0.55 0.56 0.55 0.53 0.49 0.45 0.41 0.36 0.29 0.25 0.23 0.24 0.21 0.19 0.18 0.18 0.18 0.18 0.18 0.17 0.17 0.18 0.19 0.20 0.19 0.19 0.20 0.20 0.19 0.18 0.19 0.20 0.20 0.20 0.20 0.19 0.19 0.19 0.19 0.19 0.19 0.18 0.17 0.17 0.17 0.17 0.17 0.17 0.16 0.16 0.16 0.15 0.15 0.15 0.18 0.19 0.18 0.18 0.19 0.20 0.20 0.21 0.21 0.21 0.22 0.22 0.22 0.22
0.88 0.88 0.87 0.85 0.84 0.84 0.81 0.77 0.72 0.66 0.62 0.59 0.57 0.54 0.52 0.52 0.54 0.56 0.56 0.55 0.51 0.46 0.42 0.38 0.32 0.27 0.25 0.23 0.21 0.20 0.18 0.16 0.16 0.15 0.16 0.16 0.17 0.19 0.20 0.21 0.21 0.21 0.21 0.21 0.21 0.20 0.19 0.19 0.20 0.21 0.21 0.20 0.20 0.20 0.20 0.20 0.20 0.20 0.20 0.18 0.17 0.17 0.17 0.17 0.17 0.17 0.16 0.16 0.16 0.15 0.15 0.17 0.18 0.18 0.17 0.17 0.18 0.19 0.20 0.21 0.21 0.20 0.20 0.21 0.22
0.85 0.85 0.86 0.84 0.83 0.82 0.80 0.76 0.71 0.65 0.62 0.60 0.58 0.55 0.53 0.53 0.55 0.56 0.55 0.52 0.47 0.43 0.39 0.34 0.29 0.26 0.24 0.22 0.20 0.19 0.16 0.15 0.15 0.15 0.16 0.16 0.18 0.20 0.21 0.21 0.22 0.22 0.22 0.22 0.22 0.21 0.21 0.21 0.21 0.21 0.22 0.22 0.21 0.21 0.21 0.21 0.21 0.21 0.21 0.20 0.18 0.17 0.17 0.17 0.17 0.17 0.17 0.17 0.16 0.16 0.16 0.17 0.18 0.18 0.18 0.18 0.18 0.18 0.19 0.20 0.21 0.20 0.20 0.20 0.21
0.85 0.84 0.84 0.83 0.82 0.81 0.78 0.75 0.69 0.65 0.63 0.61 0.58 0.55 0.53 0.55 0.56 0.56 0.51 0.46 0.41 0.38 0.35 0.32 0.28 0.26 0.24 0.21 0.19 0.18 0.16 0.15 0.15 0.15 0.16 0.16 0.18 0.19 0.21 0.22 0.22 0.23 0.23 0.24 0.23 0.23 0.23 0.23 0.22 0.22 0.22 0.23 0.23 0.23 0.23 0.23 0.22 0.21 0.21 0.20 0.20 0.19 0.19 0.19 0.19 0.18 0.18 0.18 0.17 0.17 0.17 0.18 0.18 0.18 0.18 0.18 0.19 0.19 0.20 0.20 0.21 0.20 0.20 0.20 0.20
0.87 0.85 0.83 0.83 0.81 0.79 0.76 0.73 0.69 0.65 0.62 0.59 0.56 0.55 0.55 0.56 0.56 0.51 0.44 0.39 0.36 0.33 0.31 0.29 0.26 0.24 0.22 0.21 0.20 0.19 0.17 0.16 0.16 0.16 0.16 0.16 0.17 0.19 0.21 0.22 0.24 0.24 0.25 0.25 0.25 0.24 0.24 0.24 0.24 0.24 0.24 0.24 0.24 0.24 0.24 0.24 0.23 0.23 0.22 0.21 0.20 0.20 0.20 0.20 0.20 0.20 0.19 0.19 0.19 0.18 0.18 0.18 0.19 0.19 0.20 0.20 0.19 0.20 0.20 0.20 0.20 0.20 0.20 0.20 0.21
0.87 0.87 0.87 0.83 0.80 0.78 0.76 0.72 0.68 0.64 0.61 0.58 0.56 0.55 0.55 0.54 0.49 0.42 0.38 0.35 0.32 0.30 0.28 0.25 0.22 0.22 0.22 0.22 0.20 0.20 0.18 0.17 0.16 0.16 0.16 0.16 0.16 0.19 0.21 0.22 0.24 0.25 0.26 0.27 0.28 0.27 0.27 0.26 0.26 0.26 0.26 0.25 0.25 0.25 0.25 0.24 0.25 0.24 0.24 0.22 0.21 0.21 0.20 0.20 0.20 0.20 0.20 0.20 0.20 0.21 0.20 0.19 0.19 0.19 0.20 0.20 0.20 0.20 0.20 0.20 0.20 0.20 0.21 0.21 0.21
0.84 0.84 0.85 0.83 0.80 0.78 0.75 0.71 0.66 0.63 0.59 0.56 0.54 0.52 0.51 0.47 0.41 0.37 0.34 0.32 0.30 0.28 0.25 0.22 0.22 0.22 0.22 0.22 0.21 0.20 0.19 0.18 0.17 0.17 0.16 0.16 0.16 0.17 0.20 0.22 0.23 0.26 0.28 0.28 0.28 0.29 0.29 0.28 0.28 0.28 0.28 0.27 0.27 0.27 0.27 0.27 0.26 0.25 0.24 0.23 0.22 0.21 0.21 0.21 0.21 0.21 0.21 0.21 0.21 0.21 0.21 0.21 0.20 0.20 0.20 0.20 0.20 0.20 0.20 0.20 0.20 0.20 0.20 0.20 0.21
0.85 0.84 0.83 0.81 0.79 0.76 0.71 0.67 0.63 0.60 0.57 0.55 0.54 0.53 0.50 0.44 0.40 0.37 0.33 0.30 0.28 0.26 0.25 0.24 0.23 0.23 0.22 0.21 0.20 0.19 0.19 0.19 0.18 0.18 0.17 0.17 0.17 0.18 0.20 0.23 0.27 0.29 0.29 0.29 0.30 0.30 0.29 0.29 0.29 0.28 0.27 0.28 0.28 0.29 0.29 0.29 0.29 0.28 0.26 0.25 0.24 0.23 0.23 0.23 0.23 0.24 0.24 0.23 0.22 0.22 0.23 0.23 0.22 0.22 0.20 0.20 0.19 0.19 0.19 0.19 0.19 0.20 0.19 0.19 0.19
0.84 0.83 0.81 0.79 0.76 0.73 0.69 0.64 0.61 0.60 0.59 0.59 0.57 0.52 0.46 0.43 0.40 0.37 0.33 0.31 0.30 0.29 0.29 0.29 0.27 0.25 0.22 0.21 0.20 0.20 0.19 0.20 0.20 0.19 0.20 0.21 0.23 0.25 0.27 0.28 0.29 0.30 0.30 0.30 0.31 0.31 0.31 0.31 0.31 0.30 0.29 0.29 0.29 0.30 0.31 0.31 0.31 0.31 0.30 0.29 0.28 0.27 0.27 0.27 0.28 0.27 0.26 0.25 0.24 0.24 0.24 0.24 0.24 0.24 0.24 0.23 0.21 0.21 0.20 0.19 0.19 0.18 0.18 0.17 0.17
0.82 0.80 0.78 0.75 0.73 0.70 0.66 0.63 0.62 0.62 0.62 0.60 0.55 0.50 0.46 0.43 0.41 0.38 0.36 0.34 0.34 0.33 0.33 0.33 0.32 0.28 0.24 0.21 0.21 0.22 0.24 0.25 0.25 0.25 0.26 0.27 0.29 0.29 0.29 0.29 0.29 0.29 0.30 0.31 0.31 0.31 0.31 0.32 0.32 0.32 0.31 0.31 0.31 0.32 0.32 0.33 0.33 0.33 0.33 0.32 0.32 0.31 0.30 0.29 0.28 0.27 0.26 0.26 0.26 0.25 0.24 0.24 0.23 0.24 0.24 0.24 0.23 0.23 0.22 0.21 0.20 0.19 0.19 0.19 0.18
0.81 0.79 0.75 0.72 0.70 0.67 0.66 0.65 0.65 0.65 0.63 0.59 0.54 0.50 0.48 0.47 0.44 0.41 0.39 0.38 0.37 0.35 0.34 0.35 0.34 0.32 0.30 0.28 0.28 0.29 0.30 0.30 0.30 0.29 0.29 0.29 0.30 0.31 0.30 0.29 0.29 0.30 0.31 0.31 0.32 0.32 0.33 0.34 0.34 0.34 0.34 0.34 0.34 0.34 0.35 0.35 0.36 0.36 0.36 0.36 0.35 0.34 0.32 0.31 0.29 0.28 0.28 0.27 0.26 0.25 0.24 0.24 0.23 0.23 0.23 0.23 0.23 0.23 0.22 0.21 0.22 0.22 0.22 0.22 0.22
0.80 0.78 0.75 0.72 0.70 0.69 0.69 0.68 0.67 0.65 0.62 0.58 0.54 0.51 0.52 0.52 0.50 0.47 0.43 0.41 0.40 0.38 0.37 0.37 0.36 0.34 0.33 0.33 0.33 0.32 0.32 0.32 0.32 0.32 0.31 0.31 0.31 0.31 0.31 0.30 0.28 0.28 0.29 0.30 0.31 0.33 0.35 0.36 0.36 0.36 0.36 0.37 0.37 0.37 0.37 0.37 0.37 0.37 0.37 0.37 0.37 0.36 0.35 0.33 0.32 0.30 0.29 0.28 0.27 0.26 0.25 0.24 0.24 0.24 0.25 0.25 0.26 0.27 0.27 0.28 0.28 0.27 0.27 0.27 0.26
0.79 0.77 0.75 0.73 0.72 0.71 0.71 0.69 0.67 0.64 0.62 0.59 0.55 0.55 0.54 0.53 0.50 0.48 0.46 0.45 0.43 0.41 0.39 0.38 0.37 0.36 0.35 0.34 0.34 0.34 0.34 0.33 0.33 0.33 0.33 0.33 0.32 0.33 0.33 0.33 0.31 0.29 0.28 0.30 0.33 0.36 0.37 0.38 0.38 0.38 0.38 0.38 0.38 0.38 0.38 0.38 0.38 0.38 0.38 0.38 0.38 0.38 0.38 0.37 0.35 0.34 0.32 0.31 0.30 0.29 0.28 0.27 0.27 0.28 0.29 0.30 0.30 0.30 0.30 0.30 0.29 0.30 0.30 0.29 0.30
0.77 0.76 0.75 0.73 0.72 0.71 0.69 0.67 0.66 0.64 0.61 0.58 0.57 0.55 0.54 0.51 0.48 0.47 0.45 0.43 0.41 0.40 0.39 0.38 0.37 0.37 0.37 0.36 0.35 0.34 0.34 0.34 0.34 0.34 0.34 0.34 0.34 0.35 0.36 0.36 0.36 0.36 0.36 0.36 0.37 0.38 0.38 0.39 0.39 0.39 0.40 0.40 0.40 0.40 0.39 0.39 0.39 0.39 0.39 0.39 0.39 0.39 0.38 0.38 0.37 0.37 0.36 0.35 0.35 0.34 0.34 0.33 0.33 0.33 0.33 0.33 0.33 0.32 0.32 0.32 0.32 0.32 0.32 0.32 0.32
Wind_Speed
16 16 16 16 15 15 14 14 14 13 13 13 12 11 10 9 8 7 7 6 6 6 5 5 5 6 7 7 8 9 10 11 12 12 13 14 15 15 15 14 14 14 14 15 15 15 16 17 17 18 19 19 19 19 19 19 19 19 19 19 19 19 20 19 19 20 21 21 21 21 21 21 21 21 20 20 19 19 19 18 18 17 17 17 16
17 17 16 16 15 14 14 14 14 14 13 12 12 11 10 9 8 7 7 7 7 6 6 6 6 7 7 8 8 9 10 11 11 12 13 14 15 15 14 14 14 14 14 14 14 15 16 16 17 18 19 19 20 19 19 19 19 18 19 19 20 20 20 20 20 20 21 21 21 21 22 21 21 21 21 20 20 19 19 19 18 18 18 18 17
17 17 16 15 15 14 14 14 14 14 13 12 11 10 10 9 8 7 7 7 7 7 7 7 7 7 8 8 9 10 10 11 12 12 13 14 14 14 14 13 13 13 13 13 14 14 15 16 17 18 19 19 20 19 19 19 19 19 19 19 20 20 21 21 21 21 21 21 22 22 22 22 22 22 22 21 20 20 19 19 19 18 18 18 18
17 17 16 15 15 15 14 14 14 13 12 12 11 11 10 9 8 8 8 8 8 8 7 7 8 8 8 9 9 10 11 11 12 12 13 13 13 13 13 13 13 13 13 13 14 14 15 16 17 17 18 19 19 20 19 19 19 19 19 20 20 21 21 21 21 21 21 22 22 23 23 22 22 23 23 22 21 20 20 19 19 19 18 18 19
18 17 16 16 15 15 14 14 13 13 12 12 12 10 9 9 8 8 8 8 9 8 8 8 8 9 9 9 10 10 11 11 12 12 12 13 13 13 13 13 13 13 13 13 13 14 15 16 16 17 17 18 19 19 19 19 19 19 20 20 20 21 21 21 22 22 22 22 23 23 23 23 23 23 23 23 22 21 21 20 19 19 19 19 19
18 17 17 16 16 15 14 14 13 13 12 12 11 10 9 9 9 9 9 9 9 9 9 9 9 9 9 9 10 10 11 11 12 12 12 12 13 13 13 13 13 13 13 13 13 14 14 15 15 16 17 18 18 19 19 19 19 20 20 21 21 21 21 22 22 22 23 23 23 24 24 24 24 24 24 23 23 22 22 21 20 20 19 19 19
18 18 17 16 16 15 15 14 13 13 13 13 12 11 10 10 10 10 10 10 10 10 10 9 9 9 9 9 10 10 11 11 12 12 12 13 13 12 12 12 12 13 12 12 13 13 14 15 15 15 16 17 17 18 19 19 19 20 20 21 21 21 22 22 22 23 23 24 24 24 25 25 24 24 24 23 22 22 22 22 21 21 20 19 19
18 18 17 17 16 16 15 14 13 13 13 13 12 11 11 11 10 10 10 10 10 10 10 10 9 9 9 9 10 10 11 11 12 12 12 12 12 12 12 12 12 12 12 12 12 13 13 14 15 15 16 16 17 18 18 19 19 20 21 21 21 21 22 22 23 23 24 24 25 25 25 25 25 24 24 24 23 22 22 21 21 21 20 19 19
18 17 17 17 16 16 15 15 14 13 13 13 12 12 12 11 11 11 10 11 11 11 10 10 9 9 9 9 10 11 11 12 12 12 12 12 12 12 11 11 11 11 11 11 12 12 13 13 14 15 15 16 16 17 18 18 19 20 21 21 21 21 22 22 23 23 24 24 25 25 26 25 25 25 24 24 23 22 22 21 20 20 20 19 18
17 17 16 16 15 15 15 14 14 14 13 13 13 12 12 12 11 11 11 11 11 11 10 9 9 9 9 9 10 11 11 11 11 11 11 11 11 11 11 11 11 11 10 11 11 12 12 13 14 15 15 15 16 17 18 18 19 20 20 21 21 21 22 23 23 23 24 24 25 25 25 26 26 25 24 23 22 22 21 21 20 20 20 19 18
17 16 16 15 15 15 14 14 14 14 13 13 13 12 12 12 11 11 11 11 10 10 9 9 9 9 9 9 10 10 11 11 10 10 11 11 11 10 10 10 10 10 10 10 11 11 12 13 13 14 14 15 16 16 17 18 19 20 20 21 21 22 22 23 23 23 23 24 24 25 25 25 25 24 23 23 22 21 21 20 20 20 19 19 18
17 16 15 15 15 14 14 14 14 13 13 13 13 12 12 12 11 11 11 10 10 10 9 9 9 9 9 9 9 10 10 10 10 10 10 10 10 10 9 9 9 9 10 10 10 11 12 12 13 13 14 15 16 16 17 18 19 20 21 21 21 22 22 23 23 23 24 24 24 25 25 24 24 24 23 22 22 21 20 20 20 19 19 19 19
17 16 16 15 15 15 15 15 14 13 13 13 13 13 12 12 11 11 10 10 10 10 9 9 9 9 9 9 9 9 10 10 9 9 9 8 8 9 9 9 9 9 9 10 10 11 12 12 13 13 14 15 15 16 17 17 18 19 20 21 21 21 22 23 24 24 24 24 24 24 24 24 23 23 23 22 21 21 21 20 20 20 20 20 19
17 17 17 16 16 15 15 15 15 14 14 14 13 13 13 12 12 11 11 10 10 10 9 9 9 9 9 9 9 9 9 9 8 8 8 7 7 8 8 8 8 9 9 10 11 11 12 12 12 13 14 14 15 16 17 17 18 19 20 21 21 21 22 23 24 24 24 24 24 23 23 22 22 22 22 22 21 21 21 21 21 21 20 20 20
18 18 17 17 16 16 16 15 15 14 14 14 14 13 13 12 12 11 11 10 10 10 9 9 9 9 9 9 9 9 9 8 8 7 7 7 7 8 8 8 8 8 9 10 11 11 12 12 12 13 13 14 15 16 16 17 18 18 19 20 21 21 22 23 24 24 24 23 23 22 21 21 21 22 22 22 22 22 22 21 21 21 20 20 21
19 19 19 18 17 16 16 16 15 14 14 14 13 13 13 12 12 12 11 10 10 10 10 10 9 9 9 9 9 9 9 8 8 7 7 7 7 8 8 8 8 8 9 10 11 11 12 12 12 13 13 14 15 16 16 17 17 18 19 20 21 21 22 22 23 23 22 22 21 21 20 20 21 22 22 23 23 22 22 22 22 22 21 21 22
20 20 19 18 17 17 17 16 14 14 14 14 13 13 13 12 12 12 11 11 11 10 10 10 10 9 9 9 9 9 9 8 8 8 7 7 7 8 8 8 8 8 9 10 11 11 11 12 12 13 13 14 15 15 16 17 17 17 18 20 21 22 22 23 22 21 21 20 20 20 20 20 20 21 22 22 23 23 22 23 23 23 23 22 22
21 20 19 18 18 17 17 16 15 14 14 14 13 13 13 13 12 12 12 11 11 11 11 10 10 10 10 9 10 10 9 9 8 8 7 7 7 8 8 7 8 8 9 10 10 11 11 12 12 13 13 14 15 15 16 17 17 17 18 19 21 22 22 22 21 20 20 19 19 19 19 19 19 20 21 22 23 23 23 23 23 23 23 23 22
21 21 20 19 19 18 18 17 16 15 14 14 14 13 13 13 13 12 12 12 11 11 11 11 11 10 10 10 10 10 10 9 9 8 7 7 7 8 8 7 7 8 9 9 10 10 11 12 13 13 14 14 15 15 16 16 17 17 18 19 21 21 22 21 21 20 19 18 18 18 18 19 19 19 20 21 22 23 23 23 23 23 23 23 23
22 22 21 20 20 19 18 17 16 16 15 14 14 14 13 13 13 12 12 12 12 12 12 12 11 11 11 11 11 11 10 10 9 8 8 7 7 8 8 8 7 8 8 9 9 10 11 12 12 13 14 14 14 15 16 16 16 17 18 19 20 21 21 20 19 19 18 17 17 17 17 18 18 19 20 20 21 22 22 23 23 23 23 23 23
23 22 22 21 20 19 18 18 17 16 16 15 14 14 14 13 13 13 12 12 12 12 12 12 12 11 11 11 11 10 10 10 9 9 8 8 8 8 8 8 8 8 8 9 9 10 11 11 12 13 14 14 14 15 15 16 16 17 18 19 19 20 20 19 18 18 17 17 16 16 16 17 17 18 19 19 20 21 22 22 23 23 23 23 23
23 22 22 21 20 19 19 18 17 17 16 15 15 14 14 14 13 13 12 12 12 12 12 12 12 12 11 11 11 10 10 10 9 9 8 8 8 8 8 8 8 8 8 8 9 10 11 11 12 13 13 13 14 15 15 16 16 17 18 18 18 19 19 18 17 17 16 16 16 16 16 17 17 18 18 18 19 20 21 22 22 23 23 23 23
22 22 21 20 20 19 19 18 18 17 16 16 15 15 14 14 13 13 13 12 13 13 13 13 12 12 12 11 11 10 10 10 9 9 9 8 8 8 8 7 7 8 8 8 9 10 10 11 11 12 13 13 13 14 15 16 16 17 17 18 18 18 18 17 16 16 16 16 16 16 16 16 17 17 18 18 18 19 19 20 21 22 22 23 23
22 21 21 21 20 20 19 19 18 17 17 16 16 15 15 14 14 14 13 13 13 13 13 13 13 13 12 12 11 11 10 10 10 9 9 9 9 8 7 7 7 8 8 8 9 10 10 11 11 11 12 12 13 14 15 16 16 17 17 17 18 18 17 16 15 15 15 15 15 16 16 16 17 17 18 18 18 18 18 19 20 21 22 22 23
22 22 21 21 21 20 19 19 18 18 17 17 16 16 15 15 14 14 14 14 14 14 14 14 14 13 13 13 12 11 11 10 10 10 10 9 8 7 7 7 8 8 8 9 9 10 10 10 10 10 11 11 12 13 14 15 16 16 17 17 17 17 16 15 14 14 15 15 15 16 16 16 16 17 17 17 18 18 18 18 19 20 20 21 22
23 23 22 21 21 20 19 19 19 18 18 17 17 16 16 16 15 15 14 14 15 14 14 14 14 14 14 13 12 11 11 11 11 10 10 9 8 8 8 8 8 8 9 9 9 10 10 9 9 9 10 11 12 12 13 14 15 16 16 16 16 16 15 15 14 14 14 14 15 15 15 15 16 16 17 17 17 17 18 18 19 19 20 20 21
22 22 21 20 20 20 20 19 19 18 18 18 17 17 17 17 16 15 15 15 15 15 15 14 14 14 13 13 12 12 11 11 11 10 9 9 9 8 8 8 8 8 9 9 9 9 9 8 8 9 10 10 11 12 13 14 14 15 15 15 15 15 15 14 13 13 13 14 14 14 15 15 15 16 16 17 17 17 18 18 19 19 19 20 20
21 20 20 19 20 20 20 20 19 19 18 18 17 17 17 17 17 16 16 16 16 15 15 15 15 14 14 13 13 12 12 12 11 10 10 9 9 9 9 9 9 9 9 9 9 9 9 8 8 9 9 10 10 11 12 13 13 13 14 14 14 14 14 13 13 13 13 13 13 14 14 15 15 16 16 16 17 17 17 18 18 19 19 19 20
20 20 20 20 20 20 20 20 20 19 18 18 17 18 18 18 17 17 17 17 16 16 16 15 15 15 14 14 13 13 13 12 12 11 10 10 9 9 9 9 9 9 9 9 9 8 8 8 8 9 9 9 10 10 11 11 12 12 13 13 13 13 13 12 12 13 13 13 13 14 14 15 15 16 16 16 17 17 17 17 18 18 19 19 19
21 21 21 21 21 21 21 20 20 19 19 18 18 17 17 17 17 17 17 17 16 16 16 16 16 15 15 14 14 13 13 12 11 11 10 10 10 9 9 9 9 9 9 9 9 8 8 8 8 8 8 9 9 9 10 10 11 11 11 12 13 13 12 12 12 12 12 12 13 13 14 14 15 15 16 16 16 17 17 17 17 18 18 19 19
22 22 22 22 22 22 21 21 20 20 19 19 18 18 17 16 16 16 16 16 16 16 16 16 16 16 15 14 14 13 13 12 12 11 11 10 10 10 9 9 9 9 9 9 9 8 8 7 8 8 8 8 8 8 9 9 9 10 10 11 11 12 11 11 11 11 12 12 12 13 13 14 14 15 15 15 16 16 16 17 17 17 18 18 18
22 22 22 22 22 22 22 21 21 20 20 19 19 18 17 17 16 15 15 16 16 16 16 16 16 16 16 15 15 14 14 13 13 12 11 11 11 10 10 10 9 9 9 9 9 8 8 8 8 8 8 8 8 8 8 8 9 9 9 10 10 11 10 10 10 11 11 11 12 12 13 13 14 14 15 15 15 16 16 16 16 16 17 17 17
23 23 22 22 22 22 22 22 22 21 20 20 19 18 18 17 17 16 15 15 16 16 16 16 16 16 16 16 15 15 14 14 14 13 12 12 11 11 10 10 10 10 10 10 9 9 8 8 8 8 8 8 8 8 8 8 8 9 9 9 9 10 10 10 10 10 11 11 11 12 12 13 13 14 14 15 15 15 16 16 16 16 16 16 16
24 23 23 23 23 23 22 22 21 21 21 20 20 19 19 18 18 17 16 15 15 16 17 17 17 17 16 16 16 15 14 14 14 13 13 12 12 11 11 10 10 10 10 10 10 10 9 9 9 9 9 8 8 8 8 8 8 9 9 9 9 9 10 10 10 10 10 11 11 12 12 13 13 13 14 14 15 15 15 15 15 15 15 15 15
24 24 24 24 24 23 23 22 22 21 21 21 20 19 19 19 19 18 17 16 16 16 17 17 18 17 17 16 16 15 14 14 14 14 13 13 12 12 11 11 11 11 11 11 11 10 10 10 10 10 9 9 9 9 9 9 9 9 9 9 9 10 10 10 10 10 10 10 11 11 12 12 13 13 13 14 14 15 15 15 15 15 15 15 15
24 24 24 25 25 25 24 23 23 22 22 21 20 20 20 19 19 18 18 17 17 17 17 17 17 17 17 16 16 16 15 15 15 14 14 14 13 13 12 12 12 12 12 12 12 11 11 11 11 11 10 10 10 10 10 10 9 9 10 10 10 10 10 10 10 10 10 11 11 12 12 12 13 13 13 14 14 14 14 15 15 15 15 15 15
25 25 25 25 25 25 24 23 23 22 22 21 21 21 20 20 19 19 18 18 18 18 18 18 18 17 17 17 17 16 16 16 15 15 15 14 14 14 13 13 13 13 13 13 13 12 12 12 12 12 11 11 11 11 11 11 10 10 10 10 10 10 11 11 11 11 11 11 12 12 12 13 13 13 13 14 14 14 14 15 15 15 15 15 15
25 25 25 25 25 25 24 23 23 23 23 22 22 21 21 20 20 19 19 19 18 19 19 19 19 18 18 18 18 17 17 17 16 16 16 15 15 14 14 14 14 14 14 14 14 13 13 13 13 13 12 12 12 12 12 12 12 11 11 11 11 11 11 12 12 12 12 12 12 13 13 13 13 13 13 14 14 15 15 15 15 15 15 16 16
26 26 26 26 25 25 25 24 24 24 23 23 23 22 21 20 20 20 20 19 19 20 20 20 20 20 19 19 19 18 18 18 18 17 17 16 16 15 15 15 15 15 15 15 15 14 14 14 14 14 14 14 13 13 13 13 13 13 13 13 13 13 13 13 13 13 13 13 13 13 13 14 14 14 14 14 15 15 15 15 15 16 16 16 16
26 26 26 26 26 25 25 25 25 24 24 23 23 23 22 21 21 21 21 21 21 21 21 21 21 21 20 20 20 19 19 19 19 18 18 17 17 17 16 16 16 16 16 16 16 15 15 15 16 15 15 15 15 15 15 15 14 14 14 14 14 14 14 14 14 14 14 14 14 14 14 15 15 15 15 15 15 16 16 16 16 16 16 17 17
27 27 27 26 26 26 25 25 25 25 24 24 24 23 22 22 22 22 22 22 22 22 22 22 22 21 21 21 21 20 20 20 20 19 19 18 18 18 18 17 17 17 17 17 17 17 17 17 17 17 17 17 16 16 16 16 16 16 16 16 16 16 16 16 16 16 15 15 16 16 16 16 16 16 16 16 16 17 17 17 17 17 17 18 18
28 28 28 27 27 26 26 26 25 25 25 24 24 23 23 23 23 23 23 23 22 22 22 22 22 21 21 21 21 21 20 20 20 20 20 19 19 19 19 19 18 18 18 18 18 18 18 18 18 18 18 18 18 18 18 18 18 18 18 18 18 17 17 17 17 17 17 17 17 17 17 17 17 17 17 18 18 18 18 18 18 18 18 18 18
28 28 28 28 28 27 26 26 25 25 24 24 24 23 23 23 23 23 23 23 23 23 23 23 22 22 22 22 22 21 21 21 21 20 20 20 20 20 20 19 19 19 20 20 20 20 19 19 20 20 20 20 20 20 19 20 20 19 20 19 19 19 19 19 19 19 19 19 19 19 19 19 19 19 19 19 19 19 19 19 19 20 20 20 20
28 28 29 29 29 28 27 26 25 25 24 24 23 23 22 22 22 22 23 23 23 23 23 23 23 22 22 22 22 22 22 22 21 21 21 21 21 21 21 20 20 20 21 21 21 21 21 21 21 21 21 22 21 21 21 21 21 21 21 21 21 21 21 21 21 21 21 21 21 21 20 20 21 21 21 21 21 21 21 21 21 21 22 22 22
27 27 28 29 29 29 27 26 25 25 24 23 23 22 22 22 22 22 22 22 22 22 23 23 23 23 23 23 23 23 23 22 22 22 22 22 22 22 22 22 22 22 22 22 22 22 22 22 22 22 23 23 23 23 23 23 23 23 23 22 22 22 22 22 23 23 23 23 23 23 22 22 22 22 23 23 23 23 23 23 23 23 24 24 24
25 25 25 26 27 28 27 26 25 25 24 23 23 23 22 22 22 22 22 22 22 22 22 22 22 23 23 23 24 24 23 22 22 22 22 22 22 22 23 23 23 23 23 23 23 23 23 24 24 24 24 24 25 25 25 25 25 25 24 24 24 24 25 25 25 25 25 25 25 25 25 25 24 24 24 24 24 24 25 25 25 25 26 26 26
24 23 23 24 25 26 26 26 25 24 24 24 23 23 23 23 23 23 23 23 23 23 23 22 22 23 23 24 24 24 23 23 23 23 23 23 23 23 24 24 24 24 24 24 25 25 25 25 25 25 25 26 26 26 26 26 26 26 26 26 26 27 27 27 27 27 27 27 27 27 27 27 27 27 26 26 26 26 26 27 27 27 27 28 28
23 23 24 23 23 23 24 24 24 24 24 24 24 24 24 24 24 23 23 23 24 24 23 23 23 23 24 24 24 24 23 24 24 25 24 24 24 24 24 25 25 26 26 26 26 26 26 26 26 26 27 27 27 27 28 28 28 28 28 28 28 29 29 29 29 29 30 30 29 29 29 29 29 28 29 29 28 28 28 28 29 29 29 29 29
22 23 23 23 22 21 22 22 23 23 23 23 23 24 24 24 24 24 23 23 24 24 24 23 23 24 24 24 24 24 25 25 26 26 25 25 25 25 25 25 26 27 27 27 27 27 27 27 28 28 28 29 29 29 30 30 30 30 30 30 30 30 30 31 31 31 30 30 30 30 30 30 30 30 30 30 30 30 30 30 30 30 30 30 31
22 22 22 22 21 21 22 22 23 22 22 22 23 23 23 23 23 23 23 23 23 24 24 24 24 24 24 24 24 25 26 26 26 26 26 26 25 25 25 26 26 26 27 28 28 28 29 29 29 30 30 31 31 31 31 31 31 31 31 31 31 31 31 31 32 32 31 31 31 31 31 31 31 31 31 31 31 31 32 32 32 32 32 32 32
22 21 21 21 21 21 22 22 22 22 22 22 22 23 23 23 23 22 22 23 23 24 24 25 25 24 24 24 25 26 26 26 27 27 27 26 26 26 26 26 27 27 27 28 29 29 30 31 31 31 32 32 32 32 32 32 32 33 32 32 32 32 32 32 32 32 33 33 33 33 32 32 32 33 33 33 33 33 34 34 34 34 34 34 33
Wind_Direction
196 197 199 200 203 206 210 213 216 220 224 228 232 234 234 231 229 234 241 249 259 262 265 275 290 301 308 314 319 323 328 332 333 334 337 338 338 339 341 341 342 344 347 349 350 350 351 351 351 351 350 350 350 349 348 347 346 347 347 348 349 348 346 345 343 340 340 341 340 338 338 337 336 336 334 331 329 327 324 322 319 317 319 320 318
200 201 202 204 208 210 213 215 219 222 225 229 232 228 224 222 227 238 245 251 254 252 256 270 284 296 307 315 321 325 327 329 331 332 334 336 336 337 339 340 342 344 346 349 350 350 350 350 351 351 352 353 354 353 352 351 351 352 353 353 353 352 349 347 345 343 342 341 341 340 339 338 337 336 335 332 330 328 324 322 319 316 316 318 316
202 203 204 207 210 212 214 217 220 222 224 226 223 217 217 223 233 241 242 243 245 248 258 271 283 294 304 312 319 324 327 328 329 329 330 332 333 335 338 340 342 343 345 348 348 348 348 350 351 352 353 355 357 357 357 357 357 357 356 355 354 353 351 349 348 346 344 344 344 342 341 339 338 336 334 332 331 330 326 323 320 316 314 316 315
201 203 205 207 210 212 214 217 219 220 221 218 214 213 219 229 235 237 236 238 243 251 263 275 284 293 300 308 315 321 325 327 327 326 327 330 332 334 337 340 341 342 343 345 345 346 347 349 351 352 354 357 359 0 1 0 360 359 357 356 354 353 352 351 351 349 347 346 346 344 343 341 339 337 335 332 331 331 329 326 323 318 314 314 315
201 202 204 206 209 211 213 216 217 217 216 212 210 215 223 230 232 234 236 240 247 255 267 279 286 291 297 305 313 318 322 324 324 323 325 328 330 332 335 337 339 339 340 342 343 344 345 348 351 352 355 358 360 1 1 1 360 358 357 355 355 354 354 353 352 351 350 348 346 345 344 342 341 339 338 335 332 331 329 327 325 320 315 314 315
202 203 204 207 209 211 213 216 217 218 215 210 212 219 225 228 230 236 241 244 249 258 270 281 286 289 295 302 310 315 318 320 321 320 321 325 328 331 332 334 336 336 337 339 341 343 346 348 350 352 355 358 360 0 0 360 359 358 356 355 354 355 355 354 353 352 351 349 347 346 345 344 342 340 339 337 334 332 330 327 325 323 318 315 316
203 204 206 208 210 212 215 217 219 219 214 212 216 223 226 229 234 239 244 248 253 260 271 279 283 287 292 299 306 311 314 317 318 317 319 323 326 329 331 332 334 334 334 337 340 343 346 348 350 352 353 356 358 359 359 358 358 357 356 355 354 354 355 354 353 353 352 351 350 348 347 345 343 341 339 338 336 335 332 328 326 325 321 316 315
203 205 207 209 211 214 216 218 219 217 213 215 222 226 228 232 237 240 246 253 258 264 270 276 280 283 289 297 303 307 311 313 315 316 319 323 326 328 329 330 333 334 333 336 341 345 346 348 349 350 351 353 355 356 356 356 357 357 356 355 354 354 354 354 354 354 353 353 352 351 349 348 346 344 342 340 339 337 335 331 327 325 323 319 317
202 206 208 210 213 215 216 218 218 216 216 220 225 227 231 234 237 242 249 256 260 265 269 272 276 280 287 295 301 305 309 311 313 315 318 322 325 325 327 330 332 332 333 336 342 346 347 347 348 350 351 353 353 353 354 354 355 355 355 354 354 353 354 354 354 354 354 354 353 352 351 350 349 347 345 344 342 339 337 335 332 329 326 322 321
204 207 209 211 213 214 215 217 217 216 219 224 226 228 232 234 238 244 251 255 259 262 266 269 273 278 286 294 300 304 308 310 313 317 319 321 322 322 326 329 330 331 333 338 342 345 346 346 347 350 352 353 352 353 353 354 354 354 353 353 353 353 353 354 354 354 354 354 353 352 352 351 350 349 347 346 344 342 340 339 338 335 332 328 326
207 208 209 211 212 213 215 217 216 218 223 225 225 227 229 233 239 245 250 254 257 260 263 267 272 278 286 293 299 304 306 309 313 316 319 319 319 320 325 327 329 332 336 339 341 343 344 344 345 348 350 351 352 352 353 354 354 354 354 353 353 353 353 354 354 355 355 355 353 353 352 352 351 350 350 349 348 347 346 346 344 342 340 336 332
209 209 209 211 211 213 217 217 217 221 226 225 223 224 227 232 239 244 248 252 255 258 263 268 273 279 286 293 299 303 304 307 311 314 316 318 319 321 324 326 329 334 337 339 340 340 341 342 343 345 347 349 350 351 351 352 353 354 354 354 354 355 355 354 354 355 355 355 354 353 353 353 352 352 352 352 353 353 354 354 353 351 349 347 342
210 210 210 210 212 217 220 218 218 226 229 225 222 222 226 232 238 244 249 252 254 258 264 268 273 280 285 292 298 301 303 307 311 313 314 318 321 322 324 327 331 335 338 339 339 338 338 339 341 342 344 347 348 349 350 350 351 353 354 354 355 356 356 355 355 355 355 355 355 355 355 355 357 357 357 357 357 359 359 359 359 359 358 356 352
211 211 210 211 215 220 221 219 222 229 228 222 220 223 227 233 239 246 250 251 253 257 262 266 272 278 283 288 293 298 302 305 309 311 313 317 321 322 324 327 331 336 338 339 340 340 339 339 340 341 343 345 346 347 348 349 350 351 353 354 355 355 355 354 354 355 355 355 357 358 358 360 2 2 2 3 3 3 4 4 4 4 3 2 360
212 212 212 214 218 222 222 221 225 227 222 218 220 223 227 233 240 246 250 250 253 257 261 265 270 275 280 283 286 291 297 299 301 304 307 312 318 320 322 326 330 334 337 338 340 342 342 341 342 343 343 344 345 346 348 349 350 351 353 354 355 355 354 353 353 354 354 355 358 360 1 4 6 6 7 7 8 8 8 8 8 7 7 7 6
215 215 215 218 222 223 221 221 224 221 216 217 221 224 229 235 240 246 250 251 254 258 262 266 268 272 276 279 281 285 289 291 291 294 300 307 313 317 319 322 327 332 336 338 340 341 342 343 343 344 345 344 345 347 348 349 350 352 353 354 355 355 354 353 354 355 356 358 0 2 4 6 8 9 10 11 11 11 11 12 12 11 10 10 8
219 217 217 220 222 220 218 220 220 217 216 220 224 227 232 237 242 248 250 251 254 258 261 265 267 269 272 275 277 278 281 282 282 284 292 301 308 312 314 318 324 330 335 337 338 339 342 343 343 344 344 344 345 347 348 349 350 352 353 354 355 355 354 354 355 356 358 0 2 3 5 6 8 10 11 12 12 12 13 13 12 11 11 10 8
222 220 219 220 220 217 218 219 218 217 220 224 227 230 234 239 244 249 250 249 253 257 261 263 266 268 269 272 274 274 274 275 274 275 283 294 303 306 309 314 321 328 333 335 335 336 340 343 344 343 343 343 345 347 348 349 350 352 352 353 355 355 354 354 355 357 359 1 1 3 5 6 8 9 11 12 12 12 13 13 12 12 13 11 9
223 221 221 221 219 217 219 221 221 222 225 228 229 231 235 240 246 249 249 251 255 258 261 263 265 266 267 270 272 271 270 271 269 268 275 287 297 301 304 310 319 326 330 332 333 334 337 341 344 344 343 343 345 347 347 348 350 351 351 353 355 355 354 354 357 358 0 1 1 2 4 5 7 9 10 11 12 12 13 13 12 13 14 13 12
221 221 221 221 219 217 220 223 224 227 229 229 230 234 237 241 244 247 249 253 258 260 262 263 263 264 266 268 271 270 268 268 265 263 269 281 291 297 302 308 316 322 326 329 331 334 337 340 342 344 344 344 346 347 348 348 349 350 351 352 355 355 354 355 358 360 2 2 2 2 3 4 7 8 9 10 12 12 13 13 13 14 15 15 15
220 220 221 221 219 219 222 224 226 229 230 230 232 235 239 242 244 247 250 255 259 260 261 261 262 263 264 266 267 267 268 266 260 258 266 278 288 296 301 305 311 317 322 325 328 333 336 339 341 342 344 346 347 348 348 349 350 350 351 352 354 354 355 356 357 359 2 4 4 5 4 4 6 8 9 10 11 12 13 14 15 15 16 16 17
222 221 221 221 220 221 224 226 228 229 230 231 233 236 240 244 246 248 252 256 258 258 258 259 259 259 261 261 261 263 266 264 258 257 263 275 288 296 298 301 306 312 317 322 325 329 333 335 337 340 342 345 348 349 350 351 350 350 351 353 354 355 357 357 357 358 1 4 7 9 8 7 7 8 9 9 10 12 13 15 16 16 17 18 19
221 220 220 220 221 223 224 226 227 228 229 231 233 236 240 245 248 250 254 257 257 256 256 256 255 254 254 254 255 260 263 261 258 257 261 272 285 292 292 296 302 307 312 316 320 325 328 330 334 338 341 344 346 349 351 351 350 350 352 353 355 355 356 356 358 0 3 5 8 10 11 10 10 10 10 10 10 11 13 15 16 17 18 20 21
219 219 219 220 222 224 225 225 226 227 229 231 234 237 241 245 249 253 256 258 256 254 253 253 251 249 248 247 249 255 260 260 258 256 259 269 279 284 285 290 297 302 307 311 316 321 324 326 331 336 341 344 347 350 353 353 353 353 355 356 356 356 356 356 359 2 5 7 9 11 12 12 12 12 11 11 11 11 11 13 15 17 19 20 21
218 219 220 221 223 224 224 224 225 227 230 233 236 239 242 246 250 254 257 257 254 252 251 251 249 246 244 243 245 250 255 257 256 255 259 267 273 275 279 288 294 299 304 309 315 319 322 325 331 337 341 344 347 350 352 354 356 357 358 -0 360 359 359 1 3 5 8 9 11 11 12 12 12 12 12 12 13 13 12 12 13 15 17 18 20
219 219 220 221 223 223 223 224 226 228 231 235 238 241 244 247 250 254 256 255 252 250 249 248 247 244 241 241 243 246 249 251 251 254 258 263 267 271 278 286 292 297 302 308 314 318 322 327 332 335 338 342 346 348 351 354 357 358 360 2 2 1 2 5 7 9 10 10 11 11 11 11 12 13 13 14 15 15 14 14 14 14 14 16 18
217 218 219 222 223 223 223 224 226 229 232 236 240 243 246 248 251 254 255 252 250 249 248 246 243 239 237 238 240 242 243 244 246 250 255 259 265 271 277 283 289 296 303 308 312 314 318 324 328 331 335 340 344 348 351 353 356 358 360 1 3 3 5 7 10 12 11 11 11 11 11 11 13 13 14 15 15 15 15 16 16 16 16 16 18
218 220 223 225 225 224 223 224 226 229 233 237 241 244 247 249 253 256 254 250 247 245 244 241 238 234 233 235 237 238 239 241 244 247 252 257 263 269 274 279 286 295 302 306 309 311 314 319 322 325 329 335 341 346 349 351 353 357 359 1 3 5 6 8 11 12 12 11 12 13 13 13 14 14 14 15 15 15 15 17 19 19 18 19 20
224 225 227 227 225 224 224 225 228 231 235 239 243 247 250 253 257 257 253 249 246 243 241 238 235 234 234 235 235 235 237 239 243 247 251 255 260 265 270 276 283 292 298 301 304 308 311 314 317 320 324 330 336 342 346 349 352 355 358 0 2 4 6 8 10 11 11 12 13 14 15 15 15 14 15 15 15 16 16 17 19 20 20 20 20
228 228 228 227 225 224 224 227 231 234 237 240 244 248 252 256 258 256 251 248 247 244 241 238 235 235 236 237 238 239 239 239 241 246 249 253 257 263 268 274 280 288 293 296 300 304 306 308 311 315 320 326 332 338 342 346 349 351 354 357 0 3 5 6 7 8 9 11 13 13 14 15 14 14 15 15 15 15 16 17 17 18 19 19 19
229 229 228 227 226 225 227 230 233 236 239 241 242 245 250 255 256 253 250 247 245 243 242 239 235 234 236 238 238 240 240 239 241 244 248 253 258 263 267 271 277 283 287 291 294 296 298 301 305 310 316 321 326 331 336 340 344 346 349 353 356 359 0 2 3 4 6 8 10 10 11 12 12 13 13 12 12 12 13 14 15 16 18 19 19
230 229 228 228 227 227 230 232 235 237 239 239 240 243 247 249 248 249 249 247 243 241 241 238 234 234 237 237 237 238 239 239 240 244 248 254 259 262 264 268 274 280 284 286 287 287 290 295 298 303 309 314 319 324 329 333 336 339 343 348 351 353 353 354 356 358 360 2 4 5 6 7 8 8 9 9 9 9 10 10 11 13 14 16 18
229 229 228 228 228 230 232 234 235 237 237 237 240 244 245 243 241 242 243 244 243 241 239 236 235 236 237 236 237 239 239 239 241 244 248 253 258 259 261 267 272 276 280 282 280 279 283 288 292 296 302 306 311 315 320 325 328 331 335 340 343 345 345 345 347 351 352 354 356 358 359 1 2 3 4 5 6 6 7 7 8 9 10 12 13
229 228 227 226 227 229 231 232 234 235 236 237 241 243 243 240 238 237 235 236 238 238 237 236 237 237 237 236 237 238 237 238 241 244 248 253 256 257 260 267 272 275 278 278 276 274 277 282 286 290 295 299 303 307 311 315 319 323 327 331 334 336 338 339 341 344 345 347 349 351 353 354 356 357 358 359 1 3 4 4 5 5 5 6 7
229 228 226 226 227 229 231 233 235 236 236 238 240 240 240 239 238 236 233 231 231 231 232 233 236 237 237 237 237 237 237 238 240 244 248 253 255 257 261 265 269 273 275 275 273 272 274 277 281 285 289 292 295 300 303 307 310 314 319 323 326 329 331 333 334 336 339 341 342 343 346 348 350 350 352 354 356 357 359 360 0 1 1 0 0
230 229 228 229 231 232 233 235 236 235 235 236 238 239 239 238 237 235 234 232 230 228 228 230 233 236 237 237 236 236 236 237 240 244 249 253 255 257 260 263 265 268 271 272 271 271 272 274 278 282 284 287 291 294 297 300 303 306 310 315 319 322 324 325 325 327 331 334 334 335 337 341 343 344 345 348 349 351 352 353 354 355 356 356 356
231 231 232 233 233 233 234 234 233 233 234 236 237 238 238 236 235 234 233 233 232 231 229 230 231 233 235 236 236 236 236 238 241 246 251 254 256 258 260 261 263 265 268 269 269 269 270 272 275 278 281 284 287 289 292 294 297 299 303 306 310 313 315 317 318 320 323 326 328 328 329 332 335 337 339 341 342 344 345 346 347 348 350 351 351
233 233 233 233 232 232 232 232 231 232 234 236 237 236 236 234 234 234 234 234 234 233 232 232 232 233 234 235 236 237 237 239 242 247 251 254 257 258 259 261 262 264 266 266 266 266 268 271 273 276 279 281 284 286 288 290 292 294 297 299 302 305 309 311 313 314 316 318 321 322 322 323 326 329 332 333 334 336 338 340 341 342 343 344 345
234 233 232 231 231 231 231 231 231 232 234 236 236 235 234 233 233 234 235 235 235 235 234 234 234 235 236 237 237 237 238 240 243 247 251 254 256 257 258 260 262 263 264 265 264 265 267 269 271 274 277 279 281 283 285 287 289 291 293 294 296 298 301 304 306 308 310 311 314 315 316 317 319 322 324 326 327 328 330 333 334 335 336 337 338
234 233 232 231 230 231 231 231 231 232 233 234 234 233 233 233 234 235 237 237 236 235 235 235 236 237 238 239 238 238 239 241 244 247 250 253 256 257 258 259 261 262 264 264 264 265 267 269 270 272 275 277 278 280 283 285 286 287 289 291 292 294 295 297 300 302 304 305 307 309 310 310 313 316 318 320 321 321 323 325 327 328 329 330 331
233 232 231 230 230 230 230 230 230 231 232 232 233 233 234 235 236 237 238 238 237 237 236 237 238 239 240 239 239 240 241 243 246 248 251 253 256 257 258 259 261 262 263 263 263 264 267 269 270 271 273 275 276 278 280 282 283 285 286 287 288 290 292 294 295 297 299 300 302 303 304 305 307 310 312 314 316 316 317 319 321 322 323 324 325
235 233 231 230 229 229 228 229 230 231 232 232 233 234 236 237 238 238 238 239 239 238 238 238 239 240 240 240 240 241 243 245 248 250 253 255 257 258 259 260 261 262 263 264 263 264 266 268 270 271 273 274 275 276 278 279 281 283 284 285 286 287 289 290 292 293 295 297 298 299 300 301 302 304 305 308 310 311 312 314 315 317 317 318 320
237 234 231 229 228 227 227 228 229 230 232 233 235 236 237 237 238 238 239 240 239 239 238 238 239 240 241 241 242 242 244 247 249 251 254 256 257 258 259 260 261 263 264 265 265 264 266 268 269 271 271 272 273 274 276 277 279 281 282 282 283 284 285 287 288 290 292 293 295 296 297 297 298 299 301 302 304 305 307 308 309 310 311 312 314
238 234 231 229 227 226 226 227 228 230 231 233 235 236 237 237 238 239 240 240 239 239 239 240 240 240 242 242 243 243 245 248 250 253 255 257 258 258 258 259 261 262 263 264 264 264 265 267 269 270 271 271 271 272 274 275 277 279 280 281 281 282 283 285 286 287 289 290 292 293 293 294 295 296 297 298 299 300 302 303 304 305 306 307 308
237 234 232 229 226 224 225 226 227 228 230 233 234 236 237 237 238 239 239 239 240 240 240 241 242 242 243 244 244 245 246 248 251 254 257 258 258 259 259 261 262 263 263 263 264 264 265 267 268 270 271 271 271 272 274 275 276 277 278 279 280 281 282 283 284 285 286 287 289 291 291 292 293 294 295 296 296 296 297 299 300 301 301 302 303
234 233 232 229 225 224 224 225 227 228 231 232 233 234 236 238 238 239 239 240 240 241 242 242 243 244 245 245 246 246 248 250 253 255 256 257 259 260 262 263 264 264 264 264 264 264 265 266 268 270 271 271 272 273 274 275 276 277 277 277 278 279 280 281 282 282 283 284 287 289 290 291 291 292 293 293 294 295 295 296 297 298 298 299 300
231 231 231 229 227 226 226 227 228 230 231 232 233 235 236 237 237 238 239 240 241 243 244 244 245 245 246 246 246 247 249 252 254 255 257 258 261 263 264 264 264 264 265 265 265 265 266 266 268 270 270 271 272 273 274 275 276 276 276 277 277 278 279 280 281 281 282 282 284 286 288 289 290 290 291 292 292 293 293 294 295 295 296 297 297
229 230 230 229 229 228 227 227 229 231 232 233 235 237 237 236 236 237 239 240 242 243 244 245 246 246 246 247 248 250 252 254 255 257 258 261 263 265 265 264 264 264 264 265 266 266 267 267 268 269 270 271 272 273 274 275 275 276 277 277 277 278 278 279 280 280 281 281 282 283 285 287 288 289 290 290 291 291 292 292 293 294 294 295 295
228 229 228 227 228 229 228 228 230 231 233 235 237 238 237 235 235 237 239 241 242 243 243 244 246 246 247 248 250 252 254 255 256 257 259 262 265 266 267 266 266 264 264 265 266 267 267 268 268 269 271 272 273 273 274 275 275 276 277 277 277 277 278 278 278 279 280 281 282 283 284 285 287 288 288 289 289 290 290 291 291 292 292 293 294
226 227 227 228 229 230 230 230 231 233 236 239 240 239 236 234 236 238 241 242 243 243 244 245 246 247 248 250 251 253 255 256 257 258 260 263 265 267 268 268 267 266 266 266 267 268 269 269 270 271 271 272 273 273 274 274 275 275 276 277 277 278 278 278 278 279 279 280 281 282 283 284 285 286 287 288 288 289 289 290 290 290 291 291 292
226 228 230 231 232 233 233 234 235 237 240 242 242 239 235 235 237 241 243 244 244 244 246 247 249 250 251 252 253 255 256 258 259 261 262 264 266 268 269 269 269 268 268 268 269 270 270 271 271 271 272 272 272 273 273 274 274 275 276 276 277 278 278 278 278 279 279 279 280 281 282 283 284 285 286 287 287 288 288 288 289 289 289 289 290